Location: Aiyekoto
(8.4333°N, 4.3667°E)
Time: 14:29:10
(UTC+00:00)

Cosmos 2239 Rocket - Pass Details

Date: 07 June 2020
Orbit: 953 x 992 km, 82.9° (Epoch: 07 July)

Event Time Altitude Azimuth Distance (km) Brightness Sun altitude
Exits shadow 03:37:39 50° 216° (SW) 1,245 4.6 -24.3°
Maximum altitude 03:39:13 66° 273° (W) 1,073 4.4 -24.0°
Drops below altitude 10° 03:45:28 10° 355° (N) 2,747 7.1 -22.7°
Sets 03:48:01 0° 358° (N) 3,695 7.9 -22.1°
